TimeEDT,TemperatureF,Dew PointF,Humidity,Sea Level PressureIn,VisibilityMPH,Wind Direction,Wind SpeedMPH,Gust SpeedMPH,PrecipitationIn,Events,Conditions,WindDirDegrees,DateUTC
12:58 AM,50.4,26.2,39,30.15,10.0,NNW,3.5,-,N/A,,Scattered Clouds,340,2013-04-03 04:58:00
1:58 AM,48.9,26.4,42,30.13,10.0,NNW,6.9,-,N/A,,Mostly Cloudy,330,2013-04-03 05:58:00
2:58 AM,47.5,27.3,46,30.12,10.0,NNW,5.8,-,N/A,,Scattered Clouds,340,2013-04-03 06:58:00
3:58 AM,45.9,27.9,49,30.10,10.0,Variable,1.2,-,N/A,,Clear,0,2013-04-03 07:58:00
4:58 AM,45.9,28.0,50,30.11,10.0,NW,4.6,-,N/A,,Scattered Clouds,310,2013-04-03 08:58:00
5:58 AM,45.7,29.3,53,30.12,10.0,NW,3.5,-,N/A,,Mostly Cloudy,320,2013-04-03 09:58:00
6:58 AM,46.2,29.8,53,30.15,10.0,Variable,3.5,-,N/A,,Mostly Cloudy,0,2013-04-03 10:58:00
7:58 AM,46.0,29.7,53,30.17,10.0,Variable,4.6,-,N/A,,Overcast,0,2013-04-03 11:58:00
8:58 AM,48.4,30.0,49,30.18,10.0,Variable,2.3,-,N/A,,Overcast,0,2013-04-03 12:58:00
9:58 AM,52.0,31.3,45,30.19,10.0,Variable,5.8,-,N/A,,Overcast,0,2013-04-03 13:58:00
10:58 AM,55.2,27.9,35,30.19,10.0,East,9.2,-,N/A,,Overcast,90,2013-04-03 14:58:00
11:58 AM,56.7,28.4,34,30.18,10.0,ESE,12.7,-,N/A,,Overcast,110,2013-04-03 15:58:00
12:58 PM,57.2,28.9,34,30.17,10.0,East,8.1,-,N/A,,Overcast,100,2013-04-03 16:58:00
1:58 PM,58.8,28.8,32,30.17,10.0,East,9.2,-,N/A,,Overcast,90,2013-04-03 17:58:00
2:58 PM,59.4,30.2,33,30.17,10.0,Variable,4.6,-,N/A,,Overcast,0,2013-04-03 18:58:00
3:58 PM,60.4,30.4,32,30.17,10.0,Variable,6.9,-,N/A,,Overcast,0,2013-04-03 19:58:00
4:58 PM,60.1,31.5,34,30.14,10.0,Variable,5.8,-,N/A,,Overcast,0,2013-04-03 20:58:00
5:58 PM,59.0,30.4,34,30.12,10.0,Variable,5.8,-,N/A,,Overcast,0,2013-04-03 21:58:00
6:20 PM,59.0,32.0,36,30.12,10.0,East,4.6,-,N/A,,Light Drizzle,80,2013-04-03 22:20:00
6:29 PM,57.2,32.0,38,30.12,10.0,Variable,5.8,-,N/A,,Overcast,0,2013-04-03 22:29:00
6:35 PM,57.2,32.0,38,30.12,10.0,Variable,5.8,-,N/A,,Light Drizzle,0,2013-04-03 22:35:00
6:58 PM,55.8,36.1,48,30.14,10.0,East,4.6,-,0.00,Rain,Light Rain,80,2013-04-03 22:58:00
7:58 PM,51.4,44.4,77,30.17,10.0,ENE,2.3,-,0.03,Rain,Light Rain,60,2013-04-03 23:58:00
8:58 PM,49.8,45.7,86,30.17,7.0,NE,4.6,-,0.02,Rain,Light Rain,40,2013-04-04 00:58:00
9:58 PM,48.6,44.1,84,30.17,7.0,ENE,4.6,-,0.01,Rain,Light Rain,70,2013-04-04 01:58:00
10:58 PM,47.5,44.2,89,30.19,7.0,ENE,3.5,-,0.03,Rain,Light Rain,70,2013-04-04 02:58:00
11:08 PM,48.2,44.6,87,30.17,9.0,ENE,4.6,-,N/A,Rain,Light Rain,60,2013-04-04 03:08:00
11:13 PM,48.2,44.6,87,30.17,10.0,ENE,4.6,-,N/A,Rain,Light Rain,70,2013-04-04 03:13:00
11:55 PM,46.4,44.6,93,30.16,10.0,East,6.9,-,N/A,,Light Drizzle,80,2013-04-04 03:55:00